This is the latest recevied weather packets stored in our database for station/object KC0AFB. If no packets are shown the sender has not sent any weather packets the latest 1 day(s).
| Time | Temp. | Humidity | Pressure | Rain* | Wind** | Luminosity | Snow |
|---|---|---|---|---|---|---|---|
| 1778033473 | 2.22° C | 55% | 1016 hPa | 0 mm | 0.89 m/s, 30° | 0 W/m² | - |
| 1778033170 | 2.22° C | 55% | 1016.1 hPa | 0 mm | 1.34 m/s, 30° | 0 W/m² | - |
| 1778032868 | 2.22° C | 55% | 1016.2 hPa | 0 mm | 0.89 m/s, 18° | 1 W/m² | - |
| 1778032565 | 2.22° C | 56% | 1016.2 hPa | 0 mm | 0.89 m/s, 23° | 2 W/m² | - |
| 1778032261 | 2.22° C | 56% | 1016 hPa | 0 mm | 1.34 m/s, 21° | 4 W/m² | - |
| 1778031959 | 2.22° C | 55% | 1015.7 hPa | 0 mm | 0.45 m/s, 28° | 6 W/m² | - |
| 1778031654 | 2.22° C | 55% | 1015.8 hPa | 0 mm | 0.89 m/s, 25° | 11 W/m² | - |
| 1778031353 | 2.78° C | 54% | 1015.8 hPa | 0 mm | 0.45 m/s, 29° | 14 W/m² | - |
| 1778031049 | 2.78° C | 53% | 1015.8 hPa | 0 mm | 1.34 m/s, 0° | 16 W/m² | - |
| 1778030745 | 3.33° C | 53% | 1015.8 hPa | 0 mm | 1.34 m/s, 342° | 18 W/m² | - |
| 1778030442 | 3.89° C | 52% | 1015.8 hPa | 0 mm | 1.34 m/s, 9° | 23 W/m² | - |
| 1778030140 | 3.89° C | 51% | 1015.6 hPa | 0 mm | 2.24 m/s, 1° | 29 W/m² | - |
| 1778029836 | 3.89° C | 51% | 1015.4 hPa | 0 mm | 2.24 m/s, 10° | 37 W/m² | - |
| 1778029531 | 4.44° C | 50% | 1015.6 hPa | 0 mm | 2.24 m/s, 352° | 36 W/m² | - |
| 1778029227 | 4.44° C | 49% | 1015.5 hPa | 0 mm | 3.58 m/s, 4° | 47 W/m² | - |
| 1778028924 | 4.44° C | 50% | 1015.6 hPa | 0 mm | 3.13 m/s, 309° | 52 W/m² | - |
| 1778028620 | 4.44° C | 51% | 1015.5 hPa | 0 mm | 3.13 m/s, 333° | 64 W/m² | - |
| 1778028318 | 3.89° C | 50% | 1015.6 hPa | 0 mm | 2.68 m/s, 355° | 59 W/m² | - |
| 1778028014 | 3.89° C | 51% | 1015.5 hPa | 0 mm | 2.24 m/s, 323° | 60 W/m² | - |
| 1778027710 | 3.89° C | 51% | 1015.5 hPa | 0 mm | 1.79 m/s, 310° | 57 W/m² | - |
| 1778027406 | 4.44° C | 50% | 1015.7 hPa | 0 mm | 3.58 m/s, 298° | 59 W/m² | - |
| 1778027103 | 4.44° C | 49% | 1015.4 hPa | 0 mm | 3.58 m/s, 336° | 64 W/m² | - |
| 1778026798 | 4.44° C | 50% | 1015.3 hPa | 0 mm | 2.68 m/s, 2° | 80 W/m² | - |
| 1778026495 | 5° C | 49% | 1015.6 hPa | 0 mm | 3.13 m/s, 337° | 95 W/m² | - |
| 1778026193 | 5° C | 49% | 1015.2 hPa | 0 mm | 4.02 m/s, 332° | 99 W/m² | - |
* Rain latest hour (hover to see other rain measurements)
** Current wind speed in m/s (hover to see current wind gust speed)